Terminal Aerodrome Forecast
Issued by NWS Green Bay, WI

Home | Current Version | Previous Version | Graphics & Text | Print | Product List | Glossary On
Versions: 1 2 3 4 5 6 7 8 9 10 11 12 13 14 15 16 17 18 19 20 21 22 23 24 25 26 27 28 29 30 31 32 33 34 35
000
FTUS43 KGRB 180500
TAFGRB
TAF
KGRB 180523Z 1806/1906 32010G18KT P6SM VCSH BKN025
      TEMPO 1809/1812 SCT025 BKN050
     FM181200 35013KT P6SM SCT025 BKN050
     FM181500 35013G19KT P6SM SCT050
     FM181800 35012G16KT P6SM SKC
     FM182200 36006KT P6SM SKC=

USA.gov is the U.S. government's official web portal to all federal, state and local government web resources and services.